Location: Anglesey
(53.1800°N, 4.2200°W)
Time: 20:17:15
(UTC+01:00)

Amateur Radio Satellites - All Passes

Search period start: 21 September 2017 19:47
Search period end: 22 September 2017 19:47
Location: Anglesey, 53.1800°N, 4.2200°W

Satellite Date Start Highest point End Downlink Frequencies (MHz)
Time Altitude Azimuth
HO-68 21 Sep 20:07:32 20:14:27 51° 260° (W) 20:21:25 435.675
KAITUO 1B 21 Sep 20:08:30 20:09:49 11° 274° (W) 20:11:08 145.475/437.950
AO-73 21 Sep 20:11:18 20:15:30 49° 69° (ENE) 20:19:49 145.935
ZACube-1 21 Sep 20:12:30 20:16:45 55° 70° (ENE) 20:21:08 437.345
Oscar 11 21 Sep 20:13:38 20:17:41 39° 66° (ENE) 20:21:46 .
SEEDS 21 Sep 20:17:26 20:21:32 46° 262° (W) 20:25:38 437.485
BEESAT 3 21 Sep 20:26:51 20:29:20 16° 114° (ESE) 20:31:50 437.485
SO-50 21 Sep 20:33:14 20:36:43 21° 10° (N) 20:40:12 436.795
XW-2A 21 Sep 20:35:48 20:38:55 32° 263° (W) 20:42:04 145.665 - 145.685
NO-84 21 Sep 20:38:10 20:41:04 37° 212° (SSW) 20:43:48 435.350 FM
PCSat 21 Sep 20:39:39 20:43:28 19° 1° (N) 20:47:17 145.827
EO-88 21 Sep 20:41:11 20:42:36 12° 56° (NE) 20:44:02 145.990 - 145.960
KKS-1 21 Sep 20:41:15 20:43:06 12° 310° (NW) 20:44:58 437.445
CUTE 1.7 + AOD 2 21 Sep 20:41:44 20:44:57 20° 270° (W) 20:48:11 437.475
CUBEBUG 2 21 Sep 20:43:50 20:47:38 31° 266° (W) 20:51:34 437.445
AAUSAT CUBESAT 2 21 Sep 20:47:55 20:51:56 46° 261° (W) 20:55:59 437.432
STRAND 1 21 Sep 20:48:00 20:53:06 61° 102° (ESE) 20:58:12 437.568
UWE-3 21 Sep 20:55:45 20:59:46 38° 264° (W) 21:03:56 435.000/436.395/437.385
AO-85 21 Sep 20:58:02 20:59:16 11° 111° (ESE) 21:00:30 145.980
FO-29 21 Sep 21:00:57 21:03:43 14° 85° (E) 21:06:36 435.910
DELFI C3 21 Sep 21:05:02 21:08:33 31° 65° (ENE) 21:12:04 145.870
Max Valier Satellite 21 Sep 21:06:25 21:09:29 24° 64° (ENE) 21:12:34 145.860
STARS 21 Sep 21:12:36 21:14:39 13° 308° (NW) 21:16:43 437.465
Tancredo 1 21 Sep 21:15:09 21:16:28 13° 145° (SE) 21:17:46 437.200
TIGRISAT 21 Sep 21:46:29 21:47:29 11° 83° (E) 21:48:30 435.000
AO-73 21 Sep 21:48:25 21:52:00 24° 269° (W) 21:55:39 145.935
ZACube-1 21 Sep 21:50:00 21:53:23 22° 270° (W) 21:56:51 437.345
Oscar 11 21 Sep 21:50:04 21:53:55 30° 266° (W) 21:57:47 .
ESTCUBE 1 21 Sep 22:00:45 22:03:11 14° 53° (NE) 22:05:37 437.505/2401.250
HO-68 21 Sep 22:02:18 22:04:01 11° 282° (WNW) 22:05:44 435.675
BEESAT 3 21 Sep 22:02:18 22:06:21 88° 314° (NW) 22:10:26 437.485
BEESAT 2 21 Sep 22:04:02 22:07:49 40° 124° (SE) 22:11:40 435.950
EO-88 21 Sep 22:11:58 22:15:39 87° 76° (ENE) 22:19:22 145.990 - 145.960
ISS 21 Sep 22:12:21 22:13:27 11° 140° (SE) 22:14:35 437.550
SO-50 21 Sep 22:13:52 22:18:14 43° 34° (NE) 22:22:37 436.795
YUBILEINY 21 Sep 22:16:32 22:23:36 26° 53° (NE) 22:30:40 435.215
PCSat 21 Sep 22:23:58 22:28:37 28° 26° (NNE) 22:33:16 145.827
STRAND 1 21 Sep 22:27:42 22:31:59 27° 302° (WNW) 22:36:15 437.568
AO-85 21 Sep 22:34:59 22:38:52 75° 132° (SE) 22:42:54 145.980
Max Valier Satellite 21 Sep 22:39:41 22:43:10 37° 263° (W) 22:46:42 145.860
DELFI C3 21 Sep 22:39:45 22:43:18 31° 264° (W) 22:46:52 145.870
FO-29 21 Sep 22:44:24 22:49:43 78° 104° (ESE) 22:55:29 435.910
Tancredo 1 21 Sep 22:47:55 22:50:30 41° 164° (SSE) 22:53:06 437.200
nSIGHT-1 21 Sep 22:54:41 22:57:15 22° 149° (SSE) 22:59:49 .
UNISAT 6 21 Sep 22:56:04 23:00:32 44° 98° (E) 23:05:02 437.425
SPROUT 21 Sep 22:58:36 23:00:38 13° 53° (NE) 23:02:39 437.525
PRISM 21 Sep 23:03:22 23:06:52 27° 95° (E) 23:10:20 437.425
LO-87 21 Sep 23:16:19 23:19:50 69° 73° (ENE) 23:23:23 145.935 - 145.965
TIGRISAT 21 Sep 23:20:25 23:25:03 67° 102° (ESE) 23:29:44 435.000
ESTCUBE 1 21 Sep 23:34:44 23:39:16 76° 72° (ENE) 23:43:50 437.505/2401.250
BEESAT 3 21 Sep 23:41:04 23:44:26 24° 335° (NNW) 23:47:48 437.485
BEESAT 2 21 Sep 23:41:45 23:45:36 40° 325° (NW) 23:49:29 435.950
ISS 21 Sep 23:46:11 23:49:16 38° 158° (SSE) 23:52:21 437.550
EO-88 21 Sep 23:49:00 23:49:53 11° 274° (W) 23:50:46 145.990 - 145.960
SO-50 21 Sep 23:54:23 23:58:46 46° 235° (SW) 00:03:11 436.795
DX 1 21 Sep 23:57:30 23:59:27 13° 51° (NE) 00:01:23 434.975-435.025
DUCHIFAT 1 22 Sep 00:05:25 00:06:53 11° 85° (E) 00:08:20 145.980
PCSat 22 Sep 00:07:20 00:12:49 81° 50° (NE) 00:18:15 145.827
YUBILEINY 22 Sep 00:13:07 00:21:54 83° 79° (E) 00:30:41 435.215
POLYITAN 1 22 Sep 00:14:23 00:17:17 17° 89° (E) 00:20:11 437.675
VELOX 1 22 Sep 00:14:27 00:18:38 44° 67° (ENE) 00:22:49 145.980
AO-85 22 Sep 00:16:16 00:19:40 27° 334° (NNW) 00:23:13 145.980
EO-79 22 Sep 00:19:14 00:22:20 19° 90° (E) 00:25:25 145.935-145.965
Tancredo 1 22 Sep 00:22:12 00:24:54 62° 182° (S) 00:27:35 437.200
nSIGHT-1 22 Sep 00:29:59 00:33:11 56° 168° (SSE) 00:36:23 .
FO-29 22 Sep 00:30:24 00:34:25 23° 305° (NW) 00:38:38 435.910
SPROUT 22 Sep 00:31:36 00:35:49 76° 73° (ENE) 00:40:05 437.525
QB50P2 22 Sep 00:31:37 00:35:16 26° 94° (E) 00:38:54 145.880/145.840
UNISAT 6 22 Sep 00:33:04 00:37:07 30° 297° (WNW) 00:41:12 437.425
AIST 2D 22 Sep 00:36:17 00:39:49 61° 101° (E) 00:43:19 435.315
PRISM 22 Sep 00:38:28 00:42:15 38° 294° (WNW) 00:46:01 437.425
LO-87 22 Sep 00:52:09 00:53:43 12° 272° (W) 00:55:16 145.935 - 145.965
TIGRISAT 22 Sep 00:57:49 01:01:20 22° 302° (WNW) 01:04:54 435.000
NANOSAT C BR1 22 Sep 01:09:14 01:13:23 48° 100° (E) 01:17:31 145.865
50 SAT 22 Sep 01:09:28 01:12:39 48° 71° (ENE) 01:15:53 437.505
ESTCUBE 1 22 Sep 01:13:41 01:16:37 17° 272° (W) 01:19:34 437.505/2401.250
BEESAT 3 22 Sep 01:20:43 01:23:15 16° 359° (N) 01:25:47 437.485
BEESAT 2 22 Sep 01:21:29 01:24:20 18° 348° (NNW) 01:27:11 435.950
ISS 22 Sep 01:22:15 01:25:32 68° 178° (S) 01:28:49 437.550
UKube-1 22 Sep 01:28:39 01:32:47 47° 67° (ENE) 01:36:56 .
BEESAT 22 Sep 01:29:26 01:31:20 12° 48° (NE) 01:33:15 436.000
DX 1 22 Sep 01:30:34 01:34:53 70° 71° (ENE) 01:39:13 434.975-435.025
Oscar 19 22 Sep 01:30:46 01:33:35 15° 85° (E) 01:36:22 437.125/150
DUCHIFAT 1 22 Sep 01:38:58 01:43:15 81° 102° (ESE) 01:47:31 145.980
POLYITAN 1 22 Sep 01:49:14 01:53:31 67° 288° (WNW) 01:57:46 437.675
PCSat 22 Sep 01:51:29 01:55:39 23° 250° (WSW) 01:59:49 145.827
VELOX 1 22 Sep 01:51:29 01:55:15 27° 266° (W) 01:59:02 145.980
EO-79 22 Sep 01:54:15 01:58:28 60° 289° (WNW) 02:02:41 145.935-145.965
Tancredo 1 22 Sep 01:56:46 01:59:12 30° 203° (SSW) 02:01:39 437.200
AO-85 22 Sep 01:58:39 02:01:20 17° 359° (N) 02:04:06 145.980
nSIGHT-1 22 Sep 02:06:09 02:09:23 62° 188° (S) 02:12:37 .
QB50P2 22 Sep 02:07:09 02:11:13 43° 293° (WNW) 02:15:16 145.880/145.840
SPROUT 22 Sep 02:09:47 02:12:16 15° 272° (W) 02:14:46 437.525
AIST 2D 22 Sep 02:10:28 02:12:36 15° 300° (WNW) 02:14:44 435.315
YUBILEINY 22 Sep 02:10:46 02:17:47 28° 282° (WNW) 02:24:48 435.215
MOZHAYETS 4 22 Sep 02:18:35 02:22:17 24° 59° (ENE) 02:26:00
BUGSAT 1 22 Sep 02:23:22 02:27:34 69° 104° (ESE) 02:31:46 437.445
ITUPSAT 1 22 Sep 02:26:01 02:30:08 30° 60° (ENE) 02:34:16 437.325
M-CUBED/EXP-1 PRIME 22 Sep 02:30:12 02:33:40 79° 111° (ESE) 02:36:57 437.505
Gurwin Techsat 1B 22 Sep 02:35:41 02:40:30 33° 95° (E) 02:45:17 435.225
CUBESAT XI-V 22 Sep 02:41:09 02:43:02 12° 50° (NE) 02:44:56 437.345
50 SAT 22 Sep 02:43:27 02:45:26 15° 269° (W) 02:47:26 437.505
NANOSAT C BR1 22 Sep 02:45:23 02:48:52 25° 299° (WNW) 02:52:21 145.865
ISS 22 Sep 02:58:40 03:01:51 45° 198° (SSW) 03:05:01 437.550
BEESAT 3 22 Sep 02:58:51 03:02:07 23° 22° (NNE) 03:05:20 437.485
BEESAT 2 22 Sep 03:00:38 03:03:27 18° 11° (NNE) 03:06:16 435.950
BEESAT 22 Sep 03:03:31 03:08:11 57° 68° (ENE) 03:12:53 436.000
UKube-1 22 Sep 03:05:30 03:09:02 24° 267° (W) 03:12:35 .
Oscar 19 22 Sep 03:08:32 03:13:45 80° 105° (ESE) 03:18:55 437.125/150
DX 1 22 Sep 03:08:42 03:11:33 17° 271° (W) 03:14:24 434.975-435.025
DUCHIFAT 1 22 Sep 03:15:42 03:18:24 17° 304° (NW) 03:21:05 145.980
POLYITAN 1 22 Sep 03:26:50 03:28:31 12° 308° (NW) 03:30:14 437.675
EO-79 22 Sep 03:32:11 03:33:24 11° 309° (NW) 03:34:36 145.935-145.965
AO-85 22 Sep 03:39:36 03:43:03 24° 23° (NNE) 03:46:41 145.980
nSIGHT-1 22 Sep 03:42:34 03:45:24 27° 208° (SSW) 03:48:13 .
O/OREOS (USA 219) 22 Sep 03:51:38 03:56:05 65° 116° (ESE) 04:00:37 437.305
MOZHAYETS 4 22 Sep 03:54:33 03:59:07 59° 259° (W) 04:03:44
RS-15 22 Sep 03:57:41 04:00:20 11° 86° (E) 04:02:59 29.354- 29.394
BUGSAT 1 22 Sep 03:59:36 04:02:29 18° 302° (WNW) 04:05:24 437.445
ITUPSAT 1 22 Sep 04:03:09 04:07:46 49° 260° (W) 04:12:27 437.325
AO-7 22 Sep 04:03:24 04:10:46 34° 94° (E) 04:18:04 .
M-CUBED/EXP-1 PRIME 22 Sep 04:05:52 04:07:36 13° 311° (NW) 04:09:18 437.505
ITAMSAT 1 22 Sep 04:08:54 04:13:14 26° 92° (E) 04:17:32 435.822/435.867
CUBESAT XI-V 22 Sep 04:14:53 04:19:31 60° 70° (ENE) 04:24:10 437.345
Gurwin Techsat 1B 22 Sep 04:15:32 04:20:38 48° 295° (WNW) 04:25:42 435.225
KKS-1 22 Sep 04:30:38 04:34:42 37° 65° (ENE) 04:38:47 437.445
ISS 22 Sep 04:35:47 04:37:46 15° 217° (SW) 04:39:45 437.550
BEESAT 3 22 Sep 04:36:15 04:40:18 75° 45° (NE) 04:44:15 437.485
BEESAT 2 22 Sep 04:38:22 04:42:13 38° 34° (NE) 04:46:01 435.950
BEESAT 22 Sep 04:42:28 04:46:18 24° 268° (W) 04:50:11 436.000
Oscar 19 22 Sep 04:48:39 04:52:32 22° 306° (NW) 04:56:25 437.125/150
STARS 22 Sep 05:01:15 05:05:09 33° 63° (ENE) 05:09:03 437.465
DOVE 4 22 Sep 05:14:28 05:15:18 10° 85° (E) 05:16:08 437.250
AO-85 22 Sep 05:19:46 05:24:03 77° 45° (NE) 05:28:40 145.980
O/OREOS (USA 219) 22 Sep 05:32:08 05:35:55 25° 317° (NW) 05:39:45 437.305
ITAMSAT 1 22 Sep 05:47:57 05:53:04 60° 292° (WNW) 05:58:12 435.822/435.867
CUBESAT XI-V 22 Sep 05:53:35 05:57:16 22° 269° (W) 06:00:57 437.345
AO-7 22 Sep 05:55:58 06:04:16 75° 296° (WNW) 06:12:30 .
Gurwin Techsat 1B 22 Sep 05:57:33 05:59:25 12° 316° (NW) 06:01:16 435.225
RS-15 22 Sep 05:57:56 06:09:13 45° 112° (ESE) 06:20:27 29.354- 29.394
KKS-1 22 Sep 06:07:19 06:11:18 33° 264° (W) 06:15:19 437.445
BEESAT 3 22 Sep 06:14:36 06:17:24 18° 244° (WSW) 06:20:08 437.485
BEESAT 2 22 Sep 06:16:09 06:20:02 43° 235° (SW) 06:23:51 435.950
XW-2D 22 Sep 06:21:58 06:24:08 14° 88° (E) 06:26:16 145.860 - 145.880
STRAND 1 22 Sep 06:31:58 06:36:21 30° 59° (ENE) 06:40:45 437.568
XW-2B 22 Sep 06:33:51 06:36:33 18° 90° (E) 06:39:13 145.730 - 145.750
XW-2F 22 Sep 06:35:33 06:38:14 18° 90° (E) 06:40:52 145.980 - 146.000
STARS 22 Sep 06:37:25 06:41:26 36° 262° (W) 06:45:31 437.465
DOVE 4 22 Sep 06:49:32 06:53:45 79° 105° (ESE) 06:58:02 437.250
XW-2C 22 Sep 06:54:37 06:58:00 29° 95° (E) 07:01:20 145.795 - 145.815
AO-85 22 Sep 07:00:46 07:04:06 21° 243° (WSW) 07:07:35 145.980
LilacSat-2 22 Sep 07:04:16 07:07:55 38° 97° (E) 07:11:30 437.200
NUDT-PHONESAT 22 Sep 07:05:20 07:08:36 27° 95° (E) 07:11:48 437.300
CUTE-I 22 Sep 07:21:09 07:26:14 44° 98° (E) 07:31:19 437.470
FO-29 22 Sep 07:21:32 07:24:26 15° 49° (NE) 07:27:17 435.910
HO-68 22 Sep 07:28:19 07:34:09 26° 89° (E) 07:39:57 435.675
ITAMSAT 1 22 Sep 07:28:56 07:31:35 14° 313° (NW) 07:34:14 435.822/435.867
KAITUO 1B 22 Sep 07:30:17 07:34:00 50° 100° (E) 07:37:38 145.475/437.950
AO-7 22 Sep 07:49:21 07:55:54 27° 320° (NW) 08:02:26 .
XW-2A 22 Sep 07:52:48 07:53:45 11° 87° (E) 07:54:40 145.665 - 145.685
XW-2D 22 Sep 07:54:55 07:58:45 67° 287° (WNW) 08:02:32 145.860 - 145.880
SEEDS 22 Sep 07:55:18 07:58:25 20° 90° (E) 08:01:31 437.485
XW-2B 22 Sep 08:07:17 08:11:02 52° 289° (WNW) 08:14:44 145.730 - 145.750
RS-15 22 Sep 08:08:38 08:21:03 80° 318° (NW) 08:33:21 29.354- 29.394
XW-2F 22 Sep 08:08:55 08:12:39 52° 289° (WNW) 08:16:20 145.980 - 146.000
STRAND 1 22 Sep 08:10:20 08:15:18 53° 259° (W) 08:20:20 437.568
CUTE 1.7 + AOD 2 22 Sep 08:18:49 08:22:58 48° 99° (E) 08:27:03 437.475
AAUSAT CUBESAT 2 22 Sep 08:24:10 08:27:05 18° 90° (E) 08:30:00 437.432
UNISAT 6 22 Sep 08:26:44 08:29:03 14° 52° (NE) 08:31:24 437.425
CUBEBUG 2 22 Sep 08:27:16 08:31:37 38° 96° (E) 08:36:01 437.445
DOVE 4 22 Sep 08:28:23 08:30:59 16° 303° (WNW) 08:33:36 437.250
XW-2C 22 Sep 08:28:45 08:32:12 32° 294° (WNW) 08:35:37 145.795 - 145.815
UWE-3 22 Sep 08:38:29 08:42:37 31° 94° (E) 08:46:45 435.000/436.395/437.385
LilacSat-2 22 Sep 08:38:50 08:42:03 26° 296° (WNW) 08:45:15 437.200
NUDT-PHONESAT 22 Sep 08:39:06 08:42:30 32° 294° (WNW) 08:45:52 437.300
TIGRISAT 22 Sep 08:49:56 08:53:05 20° 57° (ENE) 08:56:18 435.000
CUTE-I 22 Sep 09:01:23 09:06:15 37° 298° (WNW) 09:11:07 437.470
FO-29 22 Sep 09:03:12 09:08:45 68° 70° (ENE) 09:13:57 435.910
KAITUO 1B 22 Sep 09:04:55 09:07:42 20° 299° (WNW) 09:10:26 145.475/437.950
HO-68 22 Sep 09:15:29 09:22:43 83° 291° (WNW) 09:29:55 435.675
XW-2A 22 Sep 09:23:29 09:26:57 76° 286° (WNW) 09:30:22 145.665 - 145.685
AO-73 22 Sep 09:28:46 09:33:12 45° 98° (E) 09:37:35 145.935
SEEDS 22 Sep 09:30:19 09:34:27 55° 290° (WNW) 09:38:32 437.485
Oscar 11 22 Sep 09:30:22 09:34:21 34° 95° (E) 09:38:18 .
ZACube-1 22 Sep 09:30:23 09:34:53 51° 99° (E) 09:39:22 437.345
XW-2D 22 Sep 09:31:40 09:32:11 10° 307° (NW) 09:32:43 145.860 - 145.880
AO-7 22 Sep 09:42:29 09:45:59 13° 346° (NNW) 09:49:28 .
CUTE 1.7 + AOD 2 22 Sep 09:55:06 09:58:34 25° 298° (WNW) 10:02:00 437.475
PRISM 22 Sep 09:58:00 10:01:54 44° 68° (ENE) 10:05:49 437.425
AAUSAT CUBESAT 2 22 Sep 09:58:51 10:02:55 58° 289° (WNW) 10:06:57 437.432
UNISAT 6 22 Sep 10:00:40 10:05:01 78° 73° (ENE) 10:09:31 437.425
CUBEBUG 2 22 Sep 10:03:59 10:08:12 35° 295° (WNW) 10:12:30 437.445
Max Valier Satellite 22 Sep 10:04:10 10:06:15 14° 88° (E) 10:08:20 145.860
DELFI C3 22 Sep 10:10:17 10:13:20 21° 92° (E) 10:16:23 145.870
UWE-3 22 Sep 10:14:48 10:19:11 43° 293° (WNW) 10:23:36 435.000/436.395/437.385
RS-15 22 Sep 10:23:30 10:35:28 50° 349° (N) 10:47:06 29.354- 29.394
TIGRISAT 22 Sep 10:24:58 10:29:18 70° 257° (WSW) 10:33:48 435.000
NANOSAT C BR1 22 Sep 10:33:56 10:35:58 13° 53° (NE) 10:38:00 145.865
O/OREOS (USA 219) 22 Sep 10:37:36 10:40:25 16° 33° (NNE) 10:43:14 437.305
FO-29 22 Sep 10:50:05 10:54:22 22° 269° (W) 10:58:29 435.910
DUCHIFAT 1 22 Sep 11:02:10 11:05:14 20° 58° (ENE) 11:08:18 145.980
HO-68 22 Sep 11:03:56 11:09:36 26° 313° (NW) 11:15:15 435.675
AO-73 22 Sep 11:05:18 11:09:16 29° 297° (WNW) 11:13:12 145.935
Oscar 11 22 Sep 11:06:33 11:10:31 35° 295° (WNW) 11:14:26 .
ZACube-1 22 Sep 11:07:06 11:10:55 26° 299° (WNW) 11:14:44 437.345
EO-88 22 Sep 11:08:03 11:11:38 46° 100° (E) 11:15:10 145.990 - 145.960
POLYITAN 1 22 Sep 11:12:23 11:16:00 28° 63° (ENE) 11:19:40 437.675
AIST 2D 22 Sep 11:15:55 11:19:25 57° 72° (ENE) 11:22:57 435.315
EO-79 22 Sep 11:17:06 11:20:49 31° 64° (ENE) 11:24:33 145.935-145.965
ESTCUBE 1 22 Sep 11:23:27 11:24:24 11° 83° (E) 11:25:21 437.505/2401.250
YUBILEINY 22 Sep 11:28:37 11:34:32 21° 73° (ENE) 11:40:27 435.215
QB50P2 22 Sep 11:29:42 11:33:41 43° 67° (ENE) 11:37:43 145.880/145.840
AO-7 22 Sep 11:31:50 11:35:23 13° 14° (NNE) 11:38:55 .
PRISM 22 Sep 11:34:02 11:37:23 24° 267° (W) 11:40:42 437.425
Max Valier Satellite 22 Sep 11:36:46 11:40:31 66° 287° (WNW) 11:44:13 145.860
AAUSAT CUBESAT 2 22 Sep 11:37:17 11:37:31 10° 309° (NW) 11:37:46 437.432
UNISAT 6 22 Sep 11:39:40 11:42:20 16° 273° (W) 11:45:03 437.425
DELFI C3 22 Sep 11:44:33 11:48:19 45° 291° (WNW) 11:52:03 145.870
BUGSAT 1 22 Sep 11:45:19 11:47:52 16° 56° (ENE) 11:50:26 437.445
M-CUBED/EXP-1 PRIME 22 Sep 11:46:54 11:50:48 38° 61° (ENE) 11:54:27 437.505
TIGRISAT 22 Sep 12:06:28 12:06:55 10° 278° (W) 12:07:20 435.000
NANOSAT C BR1 22 Sep 12:06:47 12:10:59 78° 74° (ENE) 12:15:14 145.865
LO-87 22 Sep 12:10:20 12:13:41 35° 97° (E) 12:17:01 145.935 - 145.965
O/OREOS (USA 219) 22 Sep 12:16:14 12:20:49 60° 56° (NE) 12:25:22 437.305
Gurwin Techsat 1B 22 Sep 12:25:04 12:28:54 21° 53° (NE) 12:32:44 435.225
DUCHIFAT 1 22 Sep 12:36:22 12:40:31 63° 258° (WSW) 12:44:42 145.980
RS-15 22 Sep 12:38:39 12:50:43 56° 22° (NNE) 13:02:14 29.354- 29.394
EO-88 22 Sep 12:42:17 12:45:02 20° 298° (WNW) 12:47:44 145.990 - 145.960
POLYITAN 1 22 Sep 12:47:41 12:51:40 40° 262° (W) 12:55:42 437.675
AIST 2D 22 Sep 12:50:54 12:52:58 15° 271° (W) 12:55:02 435.315
EO-79 22 Sep 12:52:38 12:56:31 36° 263° (W) 13:00:28 145.935-145.965
Oscar 19 22 Sep 12:52:49 12:57:38 39° 63° (ENE) 13:02:28 437.125/150
ESTCUBE 1 22 Sep 12:57:33 13:02:04 71° 103° (ESE) 13:06:33 437.505/2401.250
QB50P2 22 Sep 13:06:06 13:09:39 26° 266° (W) 13:13:14 145.880/145.840
BUGSAT 1 22 Sep 13:18:42 13:22:44 76° 256° (WSW) 13:26:49 437.445
AO-7 22 Sep 13:18:52 13:25:28 27° 41° (NE) 13:32:04 .
YUBILEINY 22 Sep 13:21:13 13:29:53 76° 97° (E) 13:38:36 435.215
M-CUBED/EXP-1 PRIME 22 Sep 13:21:33 13:25:17 29° 257° (WSW) 13:28:48 437.505
VELOX 1 22 Sep 13:34:17 13:38:21 36° 97° (E) 13:42:24 145.980
LO-87 22 Sep 13:44:01 13:46:59 24° 296° (WNW) 13:49:55 145.935 - 145.965
NANOSAT C BR1 22 Sep 13:44:53 13:47:15 15° 272° (W) 13:49:38 145.865
SPROUT 22 Sep 13:46:36 13:50:53 62° 102° (ESE) 13:55:08 437.525
ITAMSAT 1 22 Sep 13:56:10 13:59:16 16° 49° (NE) 14:02:21 435.822/435.867
O/OREOS (USA 219) 22 Sep 13:56:15 13:59:53 23° 256° (WSW) 14:03:29 437.305
50 SAT 22 Sep 13:56:26 13:58:54 19° 93° (E) 14:01:21 437.505
Gurwin Techsat 1B 22 Sep 14:02:53 14:08:13 89° 251° (WSW) 14:13:35 435.225
SO-50 22 Sep 14:16:49 14:18:36 12° 110° (ESE) 14:20:23 436.795
Oscar 19 22 Sep 14:32:06 14:36:59 40° 263° (W) 14:41:53 437.125/150
ESTCUBE 1 22 Sep 14:35:09 14:38:25 20° 303° (WNW) 14:41:41 437.505/2401.250
UKube-1 22 Sep 14:45:11 14:49:09 35° 97° (E) 14:53:06 .
DX 1 22 Sep 14:48:27 14:52:45 54° 102° (ESE) 14:56:59 434.975-435.025
RS-15 22 Sep 14:52:04 15:04:14 80° 232° (SW) 15:15:43 29.354- 29.394
PCSat 22 Sep 14:56:42 15:00:25 19° 108° (ESE) 15:04:11 145.827
AO-7 22 Sep 15:08:50 15:17:08 76° 64° (ENE) 15:25:27 .
VELOX 1 22 Sep 15:10:50 15:14:46 33° 297° (WNW) 15:18:44 145.980
NO-84 22 Sep 15:11:31 15:14:57 38° 148° (SSE) 15:18:07 435.350 FM
YUBILEINY 22 Sep 15:19:55 15:27:37 34° 301° (WNW) 15:35:22 435.215
SPROUT 22 Sep 15:23:13 15:26:25 21° 301° (WNW) 15:29:36 437.525
50 SAT 22 Sep 15:28:27 15:31:32 36° 292° (WNW) 15:34:37 437.505
ITAMSAT 1 22 Sep 15:32:46 15:37:54 71° 70° (ENE) 15:43:05 435.822/435.867
MOZHAYETS 4 22 Sep 15:43:37 15:47:15 22° 91° (E) 15:50:51
Gurwin Techsat 1B 22 Sep 15:45:33 15:48:56 17° 274° (W) 15:52:20 435.225
SO-50 22 Sep 15:53:46 15:58:13 67° 131° (SE) 16:02:43 436.795
ITUPSAT 1 22 Sep 15:57:17 16:01:26 28° 94° (E) 16:05:32 437.325
HO-68 22 Sep 16:20:51 16:24:04 14° 31° (NNE) 16:27:17 435.675
UKube-1 22 Sep 16:21:17 16:25:10 33° 296° (WNW) 16:29:01 .
DOVE 4 22 Sep 16:24:31 16:27:57 23° 61° (ENE) 16:31:18 437.250
DX 1 22 Sep 16:25:11 16:28:38 23° 301° (WNW) 16:32:05 434.975-435.025
BEESAT 22 Sep 16:34:46 16:39:30 56° 101° (ESE) 16:44:13 436.000
PCSat 22 Sep 16:37:41 16:43:07 87° 128° (SE) 16:48:36 145.827
NO-84 22 Sep 16:48:44 16:52:14 74° 347° (NNW) 16:55:27 435.350 FM
AO-7 22 Sep 17:03:21 17:10:39 33° 266° (W) 17:18:01 .
RS-15 22 Sep 17:05:28 17:14:51 29° 258° (WSW) 17:23:54 29.354- 29.394
XW-2D 22 Sep 17:08:49 17:11:32 19° 60° (ENE) 17:14:16 145.860 - 145.880
CUTE-I 22 Sep 17:10:39 17:14:58 26° 56° (ENE) 17:19:18 437.470
ITAMSAT 1 22 Sep 17:13:59 17:17:54 21° 270° (W) 17:21:51 435.822/435.867
MOZHAYETS 4 22 Sep 17:20:11 17:24:47 59° 290° (WNW) 17:29:21
XW-2B 22 Sep 17:20:43 17:23:46 23° 62° (ENE) 17:26:50 145.730 - 145.750
XW-2F 22 Sep 17:22:00 17:25:01 22° 62° (ENE) 17:28:03 145.980 - 146.000
YUBILEINY 22 Sep 17:25:25 17:28:04 11° 331° (NNW) 17:30:44 435.215
ITUPSAT 1 22 Sep 17:34:49 17:39:30 50° 293° (WNW) 17:44:08 437.325
SO-50 22 Sep 17:34:55 17:39:01 33° 332° (NNW) 17:43:10 436.795
XW-2C 22 Sep 17:41:23 17:44:54 35° 67° (ENE) 17:48:26 145.795 - 145.815
CUBESAT XI-V 22 Sep 17:42:15 17:46:54 62° 102° (ESE) 17:51:28 437.345
CUTE 1.7 + AOD 2 22 Sep 17:44:07 17:46:04 13° 53° (NE) 17:48:02 437.475
NUDT-PHONESAT 22 Sep 17:49:59 17:53:21 31° 66° (ENE) 17:56:43 437.300
KKS-1 22 Sep 17:51:27 17:55:22 30° 95° (E) 17:59:17 437.445
LilacSat-2 22 Sep 17:51:35 17:55:19 46° 70° (ENE) 17:59:04 437.200
CUBEBUG 2 22 Sep 17:58:16 17:59:38 11° 50° (NE) 18:01:01 437.445
DOVE 4 22 Sep 18:01:09 18:05:26 51° 260° (W) 18:09:34 437.250
HO-68 22 Sep 18:03:29 18:09:57 39° 55° (NE) 18:16:26 435.675
BEESAT 22 Sep 18:13:02 18:17:00 26° 301° (WNW) 18:20:59 436.000
KAITUO 1B 22 Sep 18:15:35 18:19:20 58° 72° (ENE) 18:23:06 145.475/437.950
STARS 22 Sep 18:20:11 18:23:53 26° 94° (E) 18:27:34 437.465
PCSat 22 Sep 18:22:23 18:27:10 30° 331° (NNW) 18:31:58 145.827
NO-84 22 Sep 18:26:29 18:29:47 65° 7° (N) 18:32:50 435.350 FM
XW-2A 22 Sep 18:29:56 18:31:13 12° 57° (ENE) 18:32:30 145.665 - 145.685
XW-2D 22 Sep 18:41:34 18:45:22 57° 259° (W) 18:49:12 145.860 - 145.880
CUTE-I 22 Sep 18:49:21 18:54:38 67° 257° (WSW) 18:59:58 437.470
SEEDS 22 Sep 18:52:23 18:56:06 30° 64° (ENE) 18:59:51 437.485
XW-2B 22 Sep 18:54:02 18:57:43 44° 261° (W) 19:01:27 145.730 - 145.750
XW-2F 22 Sep 18:55:14 18:58:55 44° 261° (W) 19:02:38 145.980 - 146.000
AO-73 22 Sep 18:56:36 18:58:41 13° 52° (NE) 19:00:47 145.935
ZACube-1 22 Sep 18:58:06 19:00:32 15° 53° (NE) 19:03:01 437.345
Oscar 11 22 Sep 18:58:54 18:59:40 10° 50° (NE) 19:00:26 .
MOZHAYETS 4 22 Sep 18:59:15 19:01:02 12° 310° (NW) 19:02:50
ITUPSAT 1 22 Sep 19:14:55 19:16:17 11° 314° (NW) 19:17:39 437.325
XW-2C 22 Sep 19:15:50 19:19:09 27° 266° (W) 19:22:29 145.795 - 145.815
CUTE 1.7 + AOD 2 22 Sep 19:16:53 19:21:10 74° 74° (ENE) 19:25:28 437.475
SO-50 22 Sep 19:17:21 19:20:42 20° 356° (N) 19:24:04 436.795
AAUSAT CUBESAT 2 22 Sep 19:19:42 19:23:15 28° 63° (ENE) 19:26:48 437.432
CUBESAT XI-V 22 Sep 19:20:15 19:23:53 23° 302° (WNW) 19:27:30 437.345
NUDT-PHONESAT 22 Sep 19:23:56 19:27:13 29° 265° (W) 19:30:33 437.300
LilacSat-2 22 Sep 19:26:50 19:29:49 21° 268° (W) 19:32:49 437.200
KKS-1 22 Sep 19:27:52 19:32:02 40° 294° (WNW) 19:36:12 437.445
CUBEBUG 2 22 Sep 19:31:08 19:35:20 60° 71° (ENE) 19:39:44 437.445
